Regional Weather Roundup
Issued by NWS

Home | Current Version | Previous Version | Text Only | Print | Product List | Glossary On
Versions: 1 2 3 4 5 6 7 8 9 10 11 12 13 14 15 16 17 18 19 20 21 22 23 24 25 26 27 28 29 30 31 32 33 34 35 36 37 38 39 40 41 42 43 44 45 46 47 48 49 50
300
ASUS43 KBIS 242110
RWRND

NORTH DAKOTA REGIONAL WEATHER ROUNDUP
NATIONAL WEATHER SERVICE BISMARCK ND
300 PM CST FRI NOV 24 2017

NOTE: "FAIR" INDICATES FEW OR NO CLOUDS BELOW 12,000 FEET WITH NO
SIGNIFICANT WEATHER AND/OR OBSTRUCTIONS TO VISIBILITY.


NDZ001>003-009>011-017-242200-
NORTHWEST NORTH DAKOTA

CITY           SKY/WX    TMP DP  RH WIND       PRES   REMARKS
WILLISTON      SUNNY     53  29  39 NW24G32   29.73R
MINOT          SUNNY     51  31  46 W29G35    29.64R
MINOT AFB      SUNNY     48  31  50 NW32G40   29.62R
$$

NDZ018>021-031>035-040>046-242200-
SOUTHWEST NORTH DAKOTA

CITY           SKY/WX    TMP DP  RH WIND       PRES   REMARKS
BISMARCK       SUNNY     55  35  47 NW16G28   29.70R
DICKINSON      SUNNY     51  31  46 NW20      29.73S
GARRISON         N/A     50  35  56 NW18G31   29.68R
HETTINGER ARPT SUNNY     51  33  50 NW16G26   29.78R
$$

NDZ004>008-012>016-024-026-027-054-242200-
NORTHEAST NORTH DAKOTA

CITY           SKY/WX    TMP DP  RH WIND       PRES   REMARKS
GRAND FORKS    SUNNY     46  37  71 NW15      29.51R
GRND FRKS AFB  SUNNY     46  35  64 NW17G24   29.52R
DEVILS LAKE    SUNNY     45  35  68 W17G25    29.56R
$$

NDZ022-023-025-028>030-036>039-047>053-242200-
SOUTHEAST NORTH DAKOTA

CITY           SKY/WX    TMP DP  RH WIND       PRES   REMARKS
FARGO          SUNNY     50  35  56 NW22G32   29.55R
JAMESTOWN      SUNNY     50  38  63 NW23G29   29.60R
$$





USA.gov is the U.S. government's official web portal to all federal, state and local government web resources and services.